Location: Sungai Apap
(2.6167°N, 113.3833°E)
Time: 15:01:05
(UTC+00:00)

ASTRO E2 - Pass Details

Date: 25 May 2024
Orbit: 426 x 431 km, 31.4° (Epoch: 12 June)

Event Time Altitude Azimuth Distance (km) Brightness Sun altitude
Exits shadow 20:28:49 23° 19° (NNE) 944 4.4 -25.5°
Drops below altitude 10° 20:30:27 10° 36° (NE) 1,500 5.8 -25.1°
Sets 20:32:40 0° 45° (NE) 2,362 7.2 -24.6°
